sat.trackr.live / text

‹ back to catalog

REIMEI (INDEX)

NORAD 28810 · 2005-031B

PAYLOAD ACTIVE UNKNOWN

§ Identity

Operator
Country
JPN
Launch date
2005-08-23
Launch site
TYMSC
Launch vehicle
Mass (kg)
RCS (m²)
0.57

External: N2YO · Heavens-Above · Gunter

§ Orbital elements

Epoch: 2026-09-12T22:06:58.100256Z

Period
95.26 min
Inclination
98.0250°
Eccentricity
0.0019451
Mean motion
15.11618358 rev/d
Perigee alt
517.8 km
Apogee alt
544.7 km
Semi-major
6,909.4 km
B*
2.4414e-4
RAAN
24.1653°
Arg perigee
170.2335°
Mean anomaly
189.9275°
Rev number
14,424

§ Raw data

REIMEI (INDEX)1 28810U 05031B   26255.92150579  .00004093  00000+0  24414-3 0  99992 28810  98.0250  24.1653 0019451 170.2335 189.9275 15.11618358144242

JSON: /api/v1/satellites/28810 · /tle

For live sub-satellite position, see the globe view (requires WebGL).

§ Visibility from observer

Set your observer location to see the next 7 days of passes ≥ 10°. The values pass through the URL so the page stays shareable.

No JS? Fill the form by hand. The geolocation button needs JavaScript.

§ Radio — SatNOGS DB

ModeDescriptionDownlinkUplink
FM S-Band Transmitter 2.264 GHz

1 transmitter · refreshed weekly from db.satnogs.org